Main page
METAR-TAF:

METAR-TAF

Airports :

Piacenza Air Base

Piacenza, Italy

latitude: 44-55N, longitude: 009-44E, elevation: 134 m

Current weather observation

The report was made 52 minutes ago, at 11:55 UTC
Wind 3 kt from the West/Northwest
Temperature 21°C
Humidity 69%
Pressure 1015 hPa
Visibility: 6000 m
Few clouds at a height of 4000 ft

METAR: LIMS 181155Z 30003KT 6000 FEW040 21/15 Q1015 RMK SCT VIS MIN 6000 WIND THR30 07001KT WHT

Time: 14:47 (12:47 UTC)


TAF: missing

Weather observations and forecasts of more than 4000 airports (METAR and TAF reports).

The available stations are represented by yellow and red dots on the map.

Hover mouse over dot to see the name of the station.

Then click to see weather observations and forecasts.

To change the map : click on the green buttons with a black cross to zoom in, on the green button with a dash to zoom out, or on the green arrows for adjacent maps.


METAR-TAF: